Tracking 29892 objects as of 21-Nov-2024
HD Live streaming from Space Station
objects crossing your sky now

NIMBUS 2 DEB

Track NIMBUS 2 DEB now!
10-day predictions


NORAD ID: 28202
Int'l Code: 1966-040Q
Perigee: 1,008.6 km
Apogee: 1,063.3 km
Inclination: 100.1 °
Period: 105.7 minutes
Semi major axis: 7406 km
RCS: 0.0138 m2 (small)
Launch date: May 15, 1966
Source: United States (US)
Launch site: AIR FORCE WESTERN TEST RANGE (AFWTR)

Note: This is SATELLITE DEBRIS
Your satellite tracking list
Your tracking list is empty




NASA's NSSDC Master Catalog

Two Line Element Set (TLE):
1 28202U 66040Q   24318.34686950  .00003736  00000-0  48938-2 0  9992
2 28202 100.1123 173.1721 0036931 273.4817 262.1850 13.61907089553641
Source of the keplerian elements: AFSPC